Погода в Погиби

Погода в Погиби : погода сейчас, прогноз погоды и архив. Всё, что Вы хотите узнать о погоде в Погиби!

Хотите узнать прогноз погоды в Погиби? Тогда Вам сюда: Погода в Погиби

Поиск расширенной информации на нашем сайте:

Другие новости

Новости СМИ2

Главная страница сайта

Новости сайта

02.10.2013

Напоминаем, что на нашем новом сайте вы можете получить высокодетализированные прогнозы погоды по пунктам России, СНГ и мира (включающие важные для авиации метеовеличины, такие как направление и скорость ветра, видимость, явления погоды, количество и форма облачности, нижняя и верхняя граница облачности), а также ознакомиться с разнообразными материалами по авиационной метеорологии и подборкой полезных ссылок на эту тему.

Сайт Метеоцентр.Азия посвящён разработке технологий оптимизации авиаметеорологического обслуживания, включая проектирование и перспективное создание нескольких автоматизированных авиаметеорологических систем:
- система выпуска высокодетальных прогностических карт явлений погоды для нижнего воздушного пространства по России и ближнему зарубежью;
- система верификации прогнозов TAF (выпускаемых синоптиками официальных АМСГ РФ и ближнего зарубежья) и AUTOTAF (выпускаемых сайтом Метеоцентр.Азия) - выявление ошибок, онлайн-сопоставление с фактической погодой METAR, автоматическое внесение коррективов в прогнозы при резком отклонении фактической погоды от прогноза, подсчёт оправдываемости прогнозов по элементам и в целом;
- система обработки, анализа и отображения авиаметеорологической информации для применения провайдерами метеорологической информации.


Погода в Погиби - сегодня

Время (UTC), дата Ветер
(°,м/с) 
Видим.   Явления Облачность Т
(°С)
Тd
(°С)
f(%) Тe
(°С)
Pmin
(гПа)
dP
(гПа)
Po
(мм)
O2
(г/м3)
Тmin Tmax R s Состояние
почвы
09 26.06.17 020 (С) 4-5{06}  20000 м    9/6 600 м кучево-дожд., средняя 
[Cb cap|Ac trans]
+14.4 +7.8 65 +14  1010.1  1.2  757  288    +17.5       
12 26.06.17 020 (С) 2-3{05}  20000 м    9/8 600 м кучево-дожд., средняя 
[Cb cap|Ac trans]
+11 +7.7 80 +11  1010.1  757  292           
15 26.06.17 020 (С) 2-3{04}  20000 м    8/5 600 м кучево-дожд., средняя 
[Cb cap|Ac trans]
+10.6 +8.1 85 +11  1010.1  757  292           
18 26.06.17 020 (С) 2-3{04}  20000 м    10/10 600 м кучево-дожд. 
[Cb cap]
+9.6 +7.9 89 +10  1011.4  1.3  758  294           
21 26.06.17 360 (С) 4-5{06}  20000 м  {ливн. осадки}  10/10 600 м кучево-дожд. 
[Cb cap]
+8.4 +7.1 92 +7  1012.3  0.9  759  295  +8.4      влажная 
00 27.06.17 360 (С) 4-5{06}  20000 м    10/10 600 м кучево-дожд. 
[Cb cap]
+10 +8.6 91 +9  1012.6  0.3  759  293    -1.2      затоплена
водой 
03 27.06.17 360 (С) 3-4{05}  20000 м    10/10 600 м кучево-дожд. 
[Cb cap]
+12.4 +9.9 85 +13  1012.5  -0.1  759  291           
06 27.06.17 360 (С) 3-4{05}  20000 м    10/10 600 м кучево-дожд. 
[Cb cap]
+14.2 +11.6 84 +17  1012.2  -0.3  759  288           
09 27.06.17 360 (С) 2-3{04}  20000 м    9/8 600 м кучево-дожд., средняя 
[Cb cap|Ac trans]
+14.4 +12 85 +19  1011.8  -0.4  758  288    +14.6       
12 27.06.17 230 (ЮЗ) 1-2{03}  20000 м    4/0 средняя, верхняя 
[Ac trans|Ci sp]
+10.4 +9.2 92 +12  1011.7  -0.1  758  293           
18 27.06.17 100 (В) 82-3{04}  4000 м  дымка  10/10 300 м 
[St]
+8 +7.4 96 1011.3  -0.2  758  295           
21 27.06.17 180 (Ю) 5-6{07}  20000 м    8/5 600 м кучево-дожд., средняя 
[Cb cap|Ac trans]
+9.6 +8.4 92 +8  1011.1  -0.2  758  293  +8        влажная 
00 28.06.17 180 (Ю) 9-12{13}  20000 м    5/3 600 м кучево-дожд., средняя, верхняя 
[Cb cap|Ac trans|Ci sp]
+14.2 +12 87 +17  1009.8  -1.3  757  288           
03 28.06.17 180 (Ю) 9-12{13}  20000 м    8/8 300 м 
[St]
+14.4 +12.4 88 +17  1009.4  -0.4  756  287           
06 28.06.17 180 (Ю) 9-12{13}  20000 м    6/6 300 м 
[St]
+14 +12.3 89 +17  1008.3  -1.1  756  287           
09 28.06.17 180 (Ю) 9-12{13}  20000 м    9/9 300 м 
[St]
+12.4 +11.3 93 +14  1007.7  -0.6  755  289    +14.8       
12 28.06.17 180 (Ю) 8-11{12}  20000 м    10/10 300 м 
[St]
+11.7 +10.5 92 +12  1007.8  0.1  755  290           
15 28.06.17 180 (Ю) 10-13{14}  20000 м    10/10 300 м 
[St]
+10.9 +9.7 92 +10  1007.8  755  291           
18 28.06.17 180 (Ю) 9-12{13}  4000 м  дымка  10/10 300 м 
[St]
+10.2 +9.2 94 +8  1007.4  -0.4  755  292           
21 28.06.17 180 (Ю) 10-13{14}  4000 м  дымка  10/10 300 м 
[St]
+10.9 +9.9 94 +10  1006.7  -0.7  754  291  +10        сухая 
00 29.06.17 180 (Ю) 10-13{14}  4000 м  дымка  10/10 300 м 
[St]
+11.7 +10.5 92 +12  1007.1  0.4  755  290           
03 29.06.17 180 (Ю) 10-12{14}  20000 м    10/10 300 м 
[St]
+12.2 +11.3 94 +13  1006.1  -1  754  289           
06 29.06.17 180 (Ю) 10-12{14}  20000 м    10/10 600 м кучево-дожд. 
[Cb cap]
+13 +12.1 94 +15  1004.7  -1.4  753  287           
09 29.06.17 180 (Ю) 9-12{14}  10 км    10/10 300 м 
[St]
+12.4 +12 97 +15  1004.6  -0.1  753  288    +13.5       
12 29.06.17 180 (Ю) 8-12{13}  10 км    10/10 300 м 
[St]
+11.7 +11.3 97 +13  1003.8  -0.8  752  289           
Время (UTC), дата Ветер
(°,м/с) 
Видим.   Явления Облачность Т
(°С)
Тd
(°С)
f(%) Тe
(°С)
Pmin
(гПа)
dP
(гПа)
Po
(мм)
O2
(г/м3)
Тmin Tmax R s Состояние
почвы

Для получения пояснительной информации подведите курсор к названию столбца.

ПОГОДА в Погиби - архив

Всё, что Вы хотите узнать о погоде в Погиби - удобно и подробно!

Выберите нужную дату (начиная с 1 января 2015* года) и нажмите кнопку "Найти".
Будут отображены архивные сводки погоды по пункту Погиби, начиная с указанной даты.


Отображать данные в формате CSV (для использования в таблицах Excel)


Внимание! Наш архив погоды предназначен исключительно для личного некоммерческого использования в познавательных целях. Если Вам необходимы официальные справки о состоянии погоды (для производственных, юридических, коммерческих и т.п. целей), обращайтесь в органы Росгидромета.

*Примечание: данная дата относится к архиву по метеостанциям СССР (Россия, СНГ, Балтия).
Архив по метеостанциям Зарубежной Европы и Азии (кроме Китая) хранится 10 дней, по другим регионам земного шара (Китай, Африка, Америка, Австралия, Океания) - 1 день.

Погиби - район местоположения метеостанции


Название, широта, долгота, высота метеостанции:
Погиби 52.2°ш. 141.6°д. 6 м над ур. моря [Российская Федерация]

Дополнительная информация

В oтличие oт бoльшинства пoгoдных сайтoв мы публикуем пoдрoбную метеoинфoрмацию в детальнoм прoфессиoнальнoм фoрмате.

Характеристики температуры и влажнoсти вoздуха измеряются на высoте 2 м в тени вдали oт зданий и деревьев.
Скoрoсть ветра измеряется на высoте 10 м (на урoвне рoста челoвека скoрoсть ветра ниже в 1.5-2 раза). Если метеoстанция нахoдится в гoрoде или в лесу, тo скoрoсть ветра занижена на 2-4 м/с пo сравнению с oткрытым местoм. Скoрoсть ветра над акватoриями крупных рек и oзёр, а также на вершинах хoлмoв на 2-5 м/с выше, чем в oбычных услoвиях.
Атмoсфернoе давление в разных тoчках местнoсти мoжет значительнo oтличаться oт давления на метеoстанции, в зависимoсти oт услoвий рельефа (при пoдъёме на 10 м давление пoнижается примернo на 1 мм рт.ст.).